Weather History for Buckhannon, WV

Change the Weather History Date:

Saturday, February 2, 2013

  Actual Average (KEKN) Record (KEKN)
Temperature  
Mean Temperature 16 °F 30 °F  
Max Temperature 28 °F 40 °F 68 °F (1989)
Min Temperature 5 °F 20 °F -5 °F (1976)
Degree Days  
Heating Degree Days 48 35  
Month to date heating degree days 70  
Since 1 July heating degree days 3471  
Cooling Degree Days 0 0  
Month to date cooling degree days 0  
Year to date cooling degree days 0  
Moisture  
Dew Point 13 °F    
Average Humidity 82    
Maximum Humidity 100    
Minimum Humidity 54    
Precipitation  
Precipitation 0.68 in 0.11 in 1.09 in (1956)
Month to date precipitation 0.22  
Year to date precipitation 3.45  
Snow  
Snow 0.00 in - - ()
Month to date snowfall  
Since 1 September snowfall  
Snow Depth -    
Sea Level Pressure  
Sea Level Pressure 30.11 in    
Wind  
Wind Speed 3 mph (SW)    
Max Wind Speed 18 mph    
Max Gust Speed 25 mph    
Visibility 6 miles    
Events Rain , Snow    
T = Trace of Precipitation, MM = Missing Value Source: NWS Daily Summary

Daily Weather History Graph

Daily Weather History Graph

Search for Another Location

Airport:

Trip Planner

Search our weather history database for the weather conditions in past years. The results will help you decide how hot, cold, wet, or windy it might be!

Date:

Astronomy

Feb. 02, 2013 Rise Set
Actual Time 7:26 AM EST 5:43 PM EST
Civil Twilight 6:58 AM EST 6:11 PM EST
Nautical Twilight 6:26 AM EST 6:43 PM EST
Astronomical Twilight 5:55 AM EST 7:15 PM EST
Moon No Moon Rise 10:39 AM EST (2/2)
Length of Visible Light 11h 13m
Length of Day
10h 17m
Waning Gibbous, 60% of the Moon is Illuminated
Feb 2
Waning Gibbous
Feb 3
Last Quarter
Feb 10
New
Feb 17
First Quarter
Feb 25
Full

Hourly Weather History & Observations

Time (EST) Temp. Windchill Dew Point Humidity Pressure Visibility Wind Dir Wind Speed Gust Speed Precip Events Conditions
12:15 AM 8.6 °F - 1.4 °F 73% 30.29 in 10.0 mi Calm Calm - N/A   Clear
12:35 AM 6.8 °F - 1.4 °F 79% 30.29 in 10.0 mi Calm Calm - N/A   Clear
12:55 AM 8.6 °F - 1.4 °F 73% 30.28 in 10.0 mi Calm Calm - N/A   Clear
1:15 AM 6.8 °F - 1.4 °F 79% 30.28 in 10.0 mi Calm Calm - N/A   Clear
1:35 AM 6.8 °F - 1.4 °F 79% 30.27 in 10.0 mi Calm Calm - N/A   Clear
1:55 AM 6.8 °F - 1.4 °F 79% 30.27 in 10.0 mi Calm Calm - N/A   Clear
2:15 AM 6.8 °F - 1.4 °F 79% 30.27 in 10.0 mi Calm Calm - N/A   Clear
2:35 AM 6.8 °F - 1.4 °F 79% 30.26 in 10.0 mi Calm Calm - N/A   Clear
2:55 AM 6.8 °F - 1.4 °F 79% 30.26 in 10.0 mi Calm Calm - N/A   Clear
3:15 AM 6.8 °F - 1.4 °F 79% 30.26 in 10.0 mi Calm Calm - N/A   Clear
3:35 AM 5.0 °F - 1.4 °F 85% 30.26 in 10.0 mi Calm Calm - N/A   Clear
3:55 AM 6.8 °F - 1.4 °F 79% 30.26 in 10.0 mi Calm Calm - N/A   Clear
4:15 AM 6.8 °F - 1.4 °F 79% 30.25 in 10.0 mi Calm Calm - N/A   Clear
4:35 AM 6.8 °F - 1.4 °F 79% 30.24 in 10.0 mi Calm Calm - N/A   Clear
4:55 AM 6.8 °F - 1.4 °F 79% 30.24 in 10.0 mi Calm Calm - N/A   Clear
5:15 AM 8.6 °F - 1.4 °F 73% 30.24 in 10.0 mi Calm Calm - N/A   Clear
5:35 AM 5.0 °F - 1.4 °F 85% 30.23 in 10.0 mi Calm Calm - N/A   Clear
5:55 AM 6.8 °F - 1.4 °F 79% 30.23 in 10.0 mi Calm Calm - N/A   Clear
6:15 AM 6.8 °F - 1.4 °F 79% 30.23 in 10.0 mi Calm Calm - N/A   Clear
6:35 AM 8.6 °F - 1.4 °F 73% 30.22 in 10.0 mi Calm Calm - N/A   Clear
6:55 AM 8.6 °F - 1.4 °F 73% 30.22 in 10.0 mi Calm Calm - N/A   Clear
7:15 AM 6.8 °F - 1.4 °F 79% 30.22 in 10.0 mi Calm Calm - N/A   Clear
7:35 AM 5.0 °F - 1.4 °F 85% 30.21 in 10.0 mi Calm Calm - N/A   Clear
7:55 AM 8.6 °F -2.6 °F 3.2 °F 79% 30.22 in 10.0 mi SSW 6.9 mph - N/A   Clear
8:15 AM 8.6 °F - 3.2 °F 79% 30.22 in 10.0 mi Calm Calm - N/A   Clear
8:35 AM 10.4 °F -0.4 °F 3.2 °F 73% 30.22 in 10.0 mi SSW 6.9 mph - N/A   Clear
8:55 AM 12.2 °F - 5.0 °F 73% 30.22 in 10.0 mi Calm Calm - N/A   Clear
9:15 AM 14.0 °F - 6.8 °F 73% 30.21 in 10.0 mi Calm Calm - N/A   Mostly Cloudy
9:35 AM 15.8 °F - 8.6 °F 73% 30.20 in 10.0 mi Calm Calm - N/A   Scattered Clouds
9:55 AM 17.6 °F - 8.6 °F 68% 30.20 in 10.0 mi Calm Calm - N/A   Partly Cloudy
10:15 AM 19.4 °F - 10.4 °F 68% 30.18 in 10.0 mi Calm Calm - N/A   Scattered Clouds
10:35 AM 19.4 °F 10.4 °F 10.4 °F 68% 30.17 in 10.0 mi SSW 6.9 mph - N/A   Mostly Cloudy
10:55 AM 21.2 °F 10.1 °F 10.4 °F 63% 30.16 in 10.0 mi SSW 10.4 mph - N/A   Overcast
11:15 AM 23.0 °F 11.1 °F 10.4 °F 59% 30.15 in 10.0 mi SW 12.7 mph 18.4 mph N/A   Overcast
11:35 AM 23.0 °F 12.4 °F 10.4 °F 59% 30.13 in 10.0 mi SSW 10.4 mph - N/A   Scattered Clouds
11:55 AM 23.0 °F 13.9 °F 10.4 °F 59% 30.13 in 10.0 mi SW 8.1 mph 17.3 mph N/A   Partly Cloudy
12:15 PM 23.0 °F 12.4 °F 10.4 °F 59% 30.12 in 10.0 mi SSW 10.4 mph 17.3 mph N/A   Mostly Cloudy
12:35 PM 23.0 °F 11.7 °F 8.6 °F 54% 30.10 in 10.0 mi SW 11.5 mph 17.3 mph N/A   Overcast
12:55 PM 23.0 °F 8.7 °F 10.4 °F 59% 30.08 in 10.0 mi SSW 18.4 mph 25.3 mph N/A   Mostly Cloudy
1:15 PM 23.0 °F 11.7 °F 12.2 °F 63% 30.06 in 5.0 mi SSW 11.5 mph - N/A   Haze
1:35 PM 23.0 °F 11.1 °F 15.8 °F 74% 30.03 in 2.0 mi South 12.7 mph - N/A Rain Light Freezing Rain
1:55 PM 23.0 °F 11.7 °F 17.6 °F 80% 30.02 in 1.5 mi South 11.5 mph - N/A Snow Light Snow
2:15 PM 23.0 °F 13.1 °F 21.2 °F 93% 30.01 in 1.0 mi South 9.2 mph - N/A Snow Light Snow
2:35 PM 23.0 °F 13.1 °F 21.2 °F 93% 29.99 in 1.2 mi South 9.2 mph - 0.01 in Snow Light Snow
2:55 PM 23.0 °F 13.1 °F 23.0 °F 100% 29.99 in 1.0 mi SSW 9.2 mph - 0.03 in Snow Light Snow
3:15 PM 24.8 °F 14.0 °F 21.2 °F 86% 29.98 in 1.2 mi SSW 11.5 mph - N/A Rain Light Freezing Rain
3:35 PM 24.8 °F 13.4 °F 21.2 °F 86% 29.98 in 1.8 mi SSW 12.7 mph 17.3 mph N/A Rain Light Freezing Rain
3:55 PM 24.8 °F 14.0 °F 21.2 °F 86% 29.98 in 2.5 mi SW 11.5 mph - N/A Rain Light Freezing Rain
4:15 PM 26.6 °F 18.2 °F 23.0 °F 86% 29.97 in 2.0 mi SW 8.1 mph - N/A   Mostly Cloudy
4:35 PM 26.6 °F 19.1 °F 23.0 °F 86% 29.97 in 2.5 mi SSW 6.9 mph - N/A   Partly Cloudy
4:55 PM 26.6 °F 17.5 °F 23.0 °F 86% 29.97 in 2.5 mi SW 9.2 mph - N/A   Partly Cloudy
5:15 PM 26.6 °F 19.1 °F 23.0 °F 86% 29.97 in 1.8 mi SSW 6.9 mph - N/A Snow Light Snow
5:35 PM 26.6 °F 19.1 °F 24.8 °F 93% 29.97 in 1.5 mi SSW 6.9 mph - N/A Snow Light Snow
5:55 PM 26.6 °F 16.2 °F 26.6 °F 100% 29.97 in 1.0 mi SW 11.5 mph - 0.02 in Snow Light Snow
6:15 PM 26.6 °F 17.5 °F 26.6 °F 100% 29.97 in 1.2 mi SW 9.2 mph - 0.03 in Snow Light Snow
6:35 PM 26.6 °F 19.1 °F 26.6 °F 100% 29.98 in 1.5 mi SW 6.9 mph 16.1 mph 0.09 in Snow Light Snow
6:55 PM 26.6 °F 18.2 °F 26.6 °F 100% 29.98 in 1.5 mi SW 8.1 mph - 0.14 in Snow Light Snow
7:15 PM 26.6 °F 16.8 °F 26.6 °F 100% 29.98 in 1.5 mi SW 10.4 mph - 0.02 in Snow Light Snow
7:35 PM 26.6 °F 16.8 °F 26.6 °F 100% 29.98 in 1.8 mi SW 10.4 mph 16.1 mph 0.06 in Snow Light Snow
7:55 PM 26.6 °F 18.2 °F 26.6 °F 100% 29.98 in 1.2 mi SW 8.1 mph - 0.10 in Snow Light Snow
8:15 PM 26.6 °F 16.8 °F 26.6 °F 100% 29.98 in 1.5 mi SW 10.4 mph - 0.02 in Snow Light Snow
8:35 PM 26.6 °F 17.5 °F 26.6 °F 100% 29.97 in 1.0 mi SW 9.2 mph - 0.10 in Snow Light Snow
8:55 PM 26.6 °F 18.2 °F 26.6 °F 100% 29.97 in 1.2 mi SW 8.1 mph - 0.18 in Snow Light Snow
9:15 PM 26.6 °F 17.5 °F 26.6 °F 100% 29.97 in 1.8 mi SW 9.2 mph - 0.01 in Snow Light Snow
9:35 PM 28.4 °F 19.7 °F 26.6 °F 93% 29.97 in 5.0 mi SW 9.2 mph - 0.02 in Snow Light Snow
9:55 PM 28.4 °F 19.7 °F 26.6 °F 93% 29.97 in 2.5 mi WSW 9.2 mph - 0.05 in Snow Light Snow
10:15 PM 26.6 °F 20.0 °F 26.6 °F 100% 29.96 in 3.0 mi SW 5.8 mph - 0.01 in Snow Light Snow
10:35 PM 26.6 °F 19.1 °F 26.6 °F 100% 29.96 in 2.5 mi SW 6.9 mph - 0.09 in Snow Light Snow
10:55 PM - - - N/A% 29.95 in 2.0 mi SW 3.5 mph - 0.16 in   Unknown
11:15 PM 28.4 °F 24.6 °F 28.4 °F 100% 29.95 in 9.0 mi WSW 3.5 mph - N/A   Overcast
11:35 PM 28.4 °F 20.4 °F 28.4 °F 100% 29.95 in 5.0 mi WSW 8.1 mph - N/A   Overcast
11:55 PM 28.4 °F 18.5 °F 26.6 °F 93% 29.95 in 4.0 mi West 11.5 mph - N/A Rain Light Freezing Rain